FW2736 Weather Reports


Display with metric or nautical units.
time (UTC)temp
F
wind
direction
speed
MPH
gust
MPH
rain 1hr
in
rain 24hr
in
rain mn
in
humidity
%
barometer
mb
20260905171306 83 345 6.0 0.0 0.00 0.00 0.00 23 962.8
20260905170805 83 336 4.0 0.0 0.00 0.00 0.00 23 962.8
20260905170315 83 109 5.0 0.0 0.00 0.00 0.00 24 962.8
20260905165816 82 68 5.0 0.0 0.00 0.00 0.00 24 962.8
20260905165328 82 335 4.0 0.0 0.00 0.00 0.00 23 962.8
20260905164841 81 135 3.0 0.0 0.00 0.00 0.00 24 962.8
20260905164236 80 329 4.0 0.0 0.00 0.00 0.00 25 962.8
20260905163738 80 312 4.0 0.0 0.00 0.00 0.00 25 962.8
20260905163256 79 326 5.0 0.0 0.00 0.00 0.00 25 962.8
20260905162814 78 346 5.0 0.0 0.00 0.00 0.00 26 962.8
20260905162329 78 54 3.0 0.0 0.00 0.00 0.00 27 962.8
20260905161741 78 139 3.0 0.0 0.00 0.00 0.00 27 962.8
20260905161239 77 333 3.0 0.0 0.00 0.00 0.00 26 962.8
20260905160741 76 99 5.0 0.0 0.00 0.00 0.00 28 962.8
20260905160306 77 325 5.0 0.0 0.00 0.00 0.00 27 962.8
20260905155826 76 95 3.0 0.0 0.00 0.00 0.00 29 962.8
20260905155242 76 87 3.0 0.0 0.00 0.00 0.00 30 962.8
20260905154739 74 127 2.0 0.0 0.00 0.00 0.00 32 962.8
20260905154253 73 159 4.0 0.0 0.00 0.00 0.00 31 962.8
20260905153813 73 138 4.0 0.0 0.00 0.00 0.00 33 962.8
20260905153322 73 92 4.0 0.0 0.00 0.00 0.00 33 962.8
20260905152741 72 121 4.0 0.0 0.00 0.00 0.00 34 962.4
20260905152238 70 113 4.0 0.0 0.00 0.00 0.00 35 962.4
20260905151752 70 117 4.0 0.0 0.00 0.00 0.00 36 962.4
20260905151322 69 134 4.0 0.0 0.00 0.03 0.00 37 962.4
20260905150739 68 120 3.0 0.0 0.00 0.03 0.00 37 962.4
20260905150245 68 145 3.0 0.0 0.00 0.03 0.00 37 962.4
20260905145816 67 90 3.0 0.0 0.00 0.03 0.00 40 962.4
20260905145237 66 108 3.0 0.0 0.00 0.05 0.00 40 962.4
20260905144743 66 95 2.0 0.0 0.00 0.05 0.00 39 962.4
20260905144316 66 78 2.0 0.0 0.00 0.05 0.00 37 962.4
20260905143739 66 59 0.0 0.0 0.00 0.05 0.00 36 962.4
20260905143242 65 5 1.0 0.0 0.00 0.05 0.00 37 962.4
20260905142813 63 11 1.0 0.0 0.00 0.05 0.00 40 962.4
20260905142239 63 344 0.0 0.0 0.00 0.05 0.00 39 962.4
20260905141742 62 343 0.0 0.0 0.00 0.05 0.00 39 962.1
20260905141317 62 357 0.0 0.0 0.00 0.05 0.00 42 962.1
20260905140740 62 341 1.0 0.0 0.00 0.05 0.00 39 962.1
20260905140259 62 334 0.0 0.0 0.00 0.05 0.00 40 962.1
20260905135713 61 316 0.0 0.0 0.00 0.05 0.00 41 962.1
20260905135245 59 316 0.0 0.0 0.00 0.05 0.00 43 962.1
20260905134840 54 317 0.0 0.0 0.00 0.05 0.00 48 962.1
20260905134525 54 317 0.0 0.0 0.00 0.05 0.00 48 962.1
20260905133813 54 317 0.0 0.0 0.00 0.05 0.00 48 962.1
20260905133241 54 334 0.0 0.0 0.00 0.05 0.00 47 962.1
20260905132753 54 334 0.0 0.0 0.00 0.05 0.00 47 962.1
20260905132242 54 334 0.0 0.0 0.00 0.05 0.00 47 962.1
20260905131742 55 334 0.0 0.0 0.00 0.05 0.00 47 962.1
20260905131324 55 333 0.0 0.0 0.00 0.05 0.00 46 962.1
20260905130733 55 333 0.0 0.0 0.00 0.05 0.00 47 962.1
20260905130315 55 333 0.0 0.0 0.00 0.05 0.00 46 961.7
20260905125733 55 333 0.0 0.0 0.00 0.05 0.00 46 961.7
20260905125314 55 333 0.0 0.0 0.00 0.05 0.00 46 961.7
20260905124731 55 333 0.0 0.0 0.00 0.05 0.00 45 961.7
20260905124316 55 333 0.0 0.0 0.00 0.05 0.00 46 961.7
20260905123738 55 326 0.0 0.0 0.00 0.05 0.00 44 961.7
20260905123236 55 325 0.0 0.0 0.00 0.05 0.00 44 961.7
20260905122747 55 326 0.0 0.0 0.00 0.05 0.00 44 961.7
20260905122459 54 341 0.0 0.0 0.00 0.05 0.00 45 961.4
20260905122046 54 305 0.0 0.0 0.00 0.05 0.00 46 961.4
20260905121222 54 313 0.0 0.0 0.00 0.05 0.00 47 961.4
20260905120804 55 342 0.0 0.0 0.00 0.05 0.00 46 961.4
20260905120237 55 319 0.0 0.0 0.00 0.05 0.00 47 961.7
20260905115814 55 319 0.0 0.0 0.00 0.05 0.00 47 961.4
20260905115233 55 330 0.0 0.0 0.00 0.05 0.00 47 961.4
20260905114820 55 326 0.0 0.0 0.00 0.05 0.00 46 961.4
20260905114242 55 326 0.0 0.0 0.00 0.05 0.00 46 961.4
20260905113740 56 323 0.0 0.0 0.00 0.05 0.00 47 961.4
20260905113253 56 323 0.0 0.0 0.00 0.05 0.00 47 961.4
20260905112739 56 323 0.0 0.0 0.00 0.05 0.00 47 961.4
20260905112312 57 323 1.0 0.0 0.00 0.05 0.00 47 961.4
20260905111742 58 323 2.0 0.0 0.00 0.05 0.00 47 961.4
20260905111304 58 330 2.0 0.0 0.00 0.05 0.00 46 961.4
20260905110736 59 331 0.0 0.0 0.00 0.05 0.00 43 961.4
20260905110314 59 341 3.0 0.0 0.00 0.05 0.00 43 961.7
20260905105738 58 248 3.0 0.0 0.00 0.05 0.00 43 961.7
20260905105238 57 216 3.0 0.0 0.00 0.05 0.00 48 961.7
20260905104751 57 276 0.0 0.0 0.00 0.05 0.00 44 961.7
20260905104237 57 277 0.0 0.0 0.00 0.05 0.00 41 961.7
20260905103815 57 314 0.0 0.0 0.00 0.05 0.00 41 961.7
20260905103246 57 187 0.0 0.0 0.00 0.05 0.00 42 961.7
20260905102740 58 315 0.0 0.0 0.00 0.05 0.00 38 961.7
20260905102306 58 315 0.0 0.0 0.00 0.05 0.00 39 961.7
20260905101742 59 314 0.0 0.0 0.00 0.05 0.00 39 961.7
20260905101252 59 315 2.0 0.0 0.00 0.05 0.00 41 961.7
20260905100737 58 301 2.0 0.0 0.00 0.05 0.00 41 961.7
20260905100312 58 350 1.0 0.0 0.00 0.05 0.00 45 961.7
20260905095738 58 348 0.0 0.0 0.00 0.05 0.00 46 961.7
20260905095301 59 72 0.0 0.0 0.00 0.05 0.00 45 961.7
20260905094731 59 356 2.0 0.0 0.00 0.05 0.00 45 961.7
20260905094238 59 329 2.0 0.0 0.00 0.05 0.00 45 961.7
20260905093739 60 154 1.0 0.0 0.00 0.05 0.00 46 961.7
20260905093304 60 151 0.0 0.0 0.00 0.05 0.00 43 961.7
20260905092746 60 326 1.0 0.0 0.00 0.05 0.00 42 961.7
20260905092239 60 19 0.0 0.0 0.00 0.05 0.00 42 961.7
20260905091737 61 20 1.0 0.0 0.00 0.05 0.00 41 961.7
20260905091238 61 326 1.0 0.0 0.00 0.05 0.00 41 961.7
20260905090738 61 349 1.0 0.0 0.00 0.05 0.00 40 961.7
20260905090315 61 327 2.0 0.0 0.00 0.05 0.00 40 961.7
20260905085759 61 305 2.0 0.0 0.00 0.05 0.00 40 961.7
20260905085255 61 324 2.0 0.0 0.00 0.05 0.00 39 961.7
20260905084755 61 333 2.0 0.0 0.00 0.05 0.00 39 961.7
20260905084254 61 310 2.0 0.0 0.00 0.05 0.00 39 961.7
20260905083755 61 321 2.0 0.0 0.00 0.05 0.00 39 961.7
20260905083256 61 323 1.0 0.0 0.00 0.05 0.00 37 962.1
20260905082754 61 316 0.0 0.0 0.00 0.05 0.00 35 962.1
20260905082256 62 327 2.0 0.0 0.00 0.05 0.00 35 962.1
20260905081753 62 309 1.0 0.0 0.00 0.05 0.00 34 962.1
20260905081253 63 321 3.0 0.0 0.00 0.05 0.00 33 962.1
20260905080748 65 315 3.0 0.0 0.00 0.05 0.00 32 962.4
20260905080240 66 70 2.0 0.0 0.00 0.05 0.00 31 962.4
20260905075733 66 97 2.0 0.0 0.00 0.05 0.00 29 962.4
20260905075242 66 282 2.0 0.0 0.00 0.05 0.00 27 962.4
20260905074749 65 304 2.0 0.0 0.00 0.05 0.00 30 962.4
20260905074302 65 316 0.0 0.0 0.00 0.05 0.00 30 962.4
20260905073742 66 336 3.0 0.0 0.00 0.05 0.00 29 962.1
20260905073243 67 271 3.0 0.0 0.00 0.05 0.00 29 962.1
20260905072736 67 271 1.0 0.0 0.00 0.05 0.00 31 962.1
20260905072259 68 336 2.0 0.0 0.00 0.05 0.00 34 962.1
20260905071740 68 230 2.0 0.0 0.00 0.05 0.00 37 962.1
20260905071236 69 179 2.0 0.0 0.00 0.05 0.00 34 962.1
20260905070739 69 242 4.0 0.0 0.00 0.05 0.00 29 962.1
20260905070257 69 268 4.0 0.0 0.00 0.05 0.00 24 962.1
20260905065803 69 266 4.0 0.0 0.00 0.05 0.03 24 962.1
20260905065240 69 266 5.0 0.0 0.00 0.05 0.03 25 961.7
20260905064742 69 251 5.0 0.0 0.00 0.05 0.03 22 961.7
20260905064311 69 257 4.0 0.0 0.00 0.05 0.03 23 961.7
20260905063727 69 206 3.0 0.0 0.00 0.05 0.03 29 961.7
20260905063253 69 181 3.0 0.0 0.00 0.05 0.03 27 961.7
20260905062740 70 195 4.0 0.0 0.00 0.05 0.03 23 961.7
20260905062241 70 260 3.0 0.0 0.00 0.05 0.03 21 961.7
20260905061739 70 254 4.0 0.0 0.00 0.05 0.03 20 961.7
20260905061231 70 262 4.0 0.0 0.00 0.05 0.03 18 961.7
20260905060805 70 269 5.0 0.0 0.00 0.05 0.03 19 961.7
20260905060231 70 282 5.0 0.0 0.00 0.05 0.03 19 961.7
20260905055804 70 260 6.0 0.0 0.00 0.05 0.03 19 961.7
20260905055231 70 257 6.0 0.0 0.00 0.05 0.03 19 961.7
20260905054703 71 253 4.0 0.0 0.00 0.05 0.03 19 961.7
20260905054243 71 257 4.0 0.0 0.00 0.05 0.03 18 961.7
20260905053741 71 250 3.0 0.0 0.00 0.05 0.03 17 961.7
20260905053255 70 244 4.0 0.0 0.00 0.05 0.03 17 961.7
20260905052731 70 259 5.0 0.0 0.00 0.05 0.03 19 961.7
20260905052213 70 253 5.0 0.0 0.00 0.05 0.03 21 961.7
20260905051755 70 263 4.0 0.0 0.00 0.05 0.03 24 961.7
20260905051236 69 273 3.0 0.0 0.00 0.05 0.03 24 961.7
20260905050736 70 278 3.0 0.0 0.00 0.05 0.03 24 961.7
20260905050254 70 262 3.0 0.0 0.00 0.05 0.03 24 961.7
20260905045735 70 264 3.0 0.0 0.00 0.05 0.03 24 961.7
20260905045238 70 228 3.0 0.0 0.00 0.05 0.03 24 961.7
20260905044738 70 249 3.0 0.0 0.00 0.05 0.03 24 961.7
20260905044258 69 187 3.0 0.0 0.00 0.05 0.03 24 961.7
20260905043752 69 311 0.0 0.0 0.00 0.05 0.03 24 961.7
20260905043240 69 25 1.0 0.0 0.00 0.05 0.03 25 961.7
20260905042728 70 296 3.0 0.0 0.00 0.05 0.03 24 961.7
20260905042224 71 279 2.0 0.0 0.00 0.05 0.03 24 961.7
20260905041742 72 302 3.0 0.0 0.00 0.05 0.03 23 961.4
20260905041240 72 313 3.0 0.0 0.00 0.05 0.03 21 961.4
20260905040740 72 64 5.0 0.0 0.00 0.05 0.03 21 961.4
20260905040210 73 22 5.0 0.0 0.00 0.05 0.03 20 961.4
20260905035742 73 7 5.0 0.0 0.00 0.05 0.03 21 961.1
20260905035238 73 92 4.0 0.0 0.00 0.05 0.03 20 961.1
20260905034742 73 28 4.0 0.0 0.00 0.05 0.03 19 961.1
20260905034238 74 254 8.0 0.0 0.00 0.05 0.03 18 961.1
20260905033801 74 138 8.0 0.0 0.00 0.05 0.03 18 961.1
20260905033240 74 132 6.0 0.0 0.00 0.05 0.03 17 961.1
20260905032800 74 84 7.0 0.0 0.00 0.05 0.03 17 960.7
20260905032300 74 131 6.0 0.0 0.00 0.05 0.03 17 960.7
20260905031757 74 36 3.0 0.0 0.00 0.05 0.03 17 960.7
20260905031257 74 258 6.0 0.0 0.00 0.05 0.03 18 960.7
20260905030758 75 110 7.0 0.0 0.00 0.05 0.03 18 960.7
20260905030257 74 86 6.0 0.0 0.00 0.05 0.03 20 960.7
20260905025756 74 4 3.0 0.0 0.00 0.05 0.03 20 960.7
20260905025256 74 278 5.0 0.0 0.00 0.05 0.03 21 960.7
20260905024754 75 290 5.0 0.0 0.00 0.05 0.03 21 960.4
20260905024253 76 262 3.0 0.0 0.00 0.05 0.03 21 960.4
20260905023752 76 39 6.0 0.0 0.00 0.05 0.03 20 960.4
20260905023251 76 144 7.0 0.0 0.00 0.05 0.03 20 960.4
20260905022743 77 138 6.0 0.0 0.00 0.05 0.03 21 960.4
20260905022254 77 276 7.0 0.0 0.00 0.05 0.03 21 960.4
20260905021752 78 132 7.0 0.0 0.00 0.05 0.03 21 960.0
20260905021252 78 108 9.0 0.0 0.00 0.05 0.03 21 960.0
20260905020751 78 127 11.0 0.0 0.00 0.05 0.03 20 960.0
20260905020250 79 164 12.0 0.0 0.00 0.05 0.03 19 960.0
20260905015749 79 129 14.0 0.0 0.00 0.05 0.03 20 960.0
20260905015251 79 45 8.0 0.0 0.00 0.05 0.03 20 960.0
20260905014747 79 109 10.0 0.0 0.00 0.05 0.03 21 960.0
20260905014248 80 83 9.0 0.0 0.00 0.05 0.03 21 959.7
20260905013746 80 126 11.0 0.0 0.00 0.05 0.03 21 959.7
20260905013245 80 36 15.0 0.0 0.00 0.05 0.03 20 959.7
20260905012745 80 125 15.0 0.0 0.00 0.05 0.03 20 959.7
20260905012242 81 203 15.0 0.0 0.00 0.05 0.03 20 959.7
20260905011843 81 40 17.0 0.0 0.00 0.05 0.03 20 959.7
20260905011540 81 58 17.0 0.0 0.00 0.05 0.03 21 959.7
20260905010739 81 217 16.0 0.0 0.00 0.05 0.03 21 960.0
20260905010240 81 135 16.0 0.0 0.00 0.05 0.03 22 959.7
20260905005738 82 122 16.0 0.0 0.00 0.05 0.03 21 959.7
20260905005239 82 123 13.0 0.0 0.00 0.05 0.03 22 959.7
20260905004738 83 252 17.0 0.0 0.00 0.05 0.03 22 959.7
20260905004236 83 90 13.0 0.0 0.00 0.05 0.03 22 959.7
20260905003736 84 138 11.0 0.0 0.00 0.05 0.03 22 959.7
20260905003236 84 146 12.0 0.0 0.00 0.05 0.03 22 959.7
20260905002734 84 152 12.0 0.0 0.00 0.05 0.03 23 959.7
20260905002233 85 235 14.0 0.0 0.00 0.05 0.03 22 959.7
20260905001733 85 118 12.0 0.0 0.00 0.05 0.03 22 959.7
20260905001232 85 205 13.0 0.0 0.00 0.05 0.03 22 959.7
20260905000732 85 115 14.0 0.0 0.00 0.05 0.03 22 959.7
20260905000230 85 56 14.0 0.0 0.00 0.05 0.03 22 959.4
20260904235730 86 171 13.0 0.0 0.00 0.05 0.03 21 959.7
20260904235229 86 121 13.0 0.0 0.00 0.05 0.03 22 959.7
20260904234728 86 155 15.0 0.0 0.00 0.05 0.03 22 959.7
20260904234227 86 173 13.0 0.0 0.00 0.05 0.03 22 959.7
20260904233727 87 131 10.0 0.0 0.00 0.05 0.03 22 959.7
20260904233227 88 32 10.0 0.0 0.00 0.05 0.03 21 959.7
20260904232725 88 189 10.0 0.0 0.00 0.05 0.03 21 959.7
20260904232224 88 56 13.0 0.0 0.00 0.05 0.03 21 959.7
20260904231724 88 124 17.0 0.0 0.00 0.05 0.03 21 959.7
20260904231223 88 205 17.0 0.0 0.00 0.05 0.03 21 959.7
20260904230723 88 196 15.0 0.0 0.00 0.05 0.03 22 959.7
20260904230238 88 192 12.0 0.0 0.00 0.05 0.03 22 959.7
20260904225922 88 63 11.0 0.0 0.00 0.05 0.03 23 959.7
20260904225522 88 171 11.0 0.0 0.00 0.05 0.03 22 959.7
20260904224739 89 72 10.0 0.0 0.00 0.05 0.03 22 959.7
20260904224236 89 133 10.0 0.0 0.00 0.05 0.03 23 959.7
20260904223720 90 160 11.0 0.0 0.00 0.05 0.03 21 959.7
20260904223240 90 149 11.0 0.0 0.00 0.05 0.03 21 959.7
20260904222741 89 140 12.0 0.0 0.00 0.05 0.03 22 959.7
20260904222239 90 121 10.0 0.0 0.00 0.05 0.03 21 959.7
20260904221742 91 201 10.0 0.0 0.00 0.05 0.03 19 959.7
20260904221221 90 141 10.0 0.0 0.00 0.05 0.03 18 960.0
20260904220741 90 172 12.0 0.0 0.00 0.05 0.03 18 960.0
20260904220220 89 141 12.0 0.0 0.00 0.05 0.03 18 960.0
20260904215737 90 187 9.0 0.0 0.00 0.05 0.03 19 960.0
20260904215219 89 71 9.0 0.0 0.00 0.05 0.03 18 960.0
20260904214719 90 176 10.0 0.0 0.00 0.05 0.03 18 960.0
20260904214240 90 145 13.0 0.0 0.00 0.05 0.03 18 960.0
20260904213718 90 160 11.0 0.0 0.00 0.05 0.03 19 960.4
20260904213217 90 125 9.0 0.0 0.00 0.05 0.03 17 960.4
20260904212718 90 165 10.0 0.0 0.00 0.05 0.03 17 960.4
20260904212217 90 136 9.0 0.0 0.00 0.05 0.03 17 960.4
20260904211716 89 203 10.0 0.0 0.00 0.05 0.03 17 960.4
20260904211217 90 150 11.0 0.0 0.00 0.05 0.03 17 960.4
20260904210723 88 166 11.0 0.0 0.00 0.05 0.03 17 960.4
20260904210217 89 192 13.0 0.0 0.00 0.05 0.03 18 960.4
20260904205716 89 123 13.0 0.0 0.00 0.05 0.03 17 960.4
20260904205216 88 120 12.0 0.0 0.00 0.05 0.03 18 960.4
20260904204716 89 125 10.0 0.0 0.00 0.05 0.03 16 960.4
20260904204215 88 133 9.0 0.0 0.00 0.05 0.03 17 960.4
20260904203714 89 133 9.0 0.0 0.00 0.05 0.03 20 960.4
20260904203216 88 176 8.0 0.0 0.00 0.05 0.03 21 960.4
20260904202715 88 126 9.0 0.0 0.00 0.05 0.03 22 960.4
20260904202216 88 187 10.0 0.0 0.00 0.05 0.03 22 960.4
20260904201714 87 186 10.0 0.0 0.00 0.05 0.03 25 960.7
20260904201214 88 160 10.0 0.0 0.00 0.05 0.03 24 960.7
20260904200715 86 120 8.0 0.0 0.00 0.05 0.03 25 960.7
20260904200213 85 170 15.0 0.0 0.00 0.05 0.03 22 960.7
20260904195713 86 109 15.0 0.0 0.00 0.05 0.03 27 960.7
20260904195212 87 123 11.0 0.0 0.00 0.05 0.03 25 960.7
20260904194714 86 172 11.0 0.0 0.00 0.05 0.03 27 961.1
20260904194240 87 160 11.0 0.0 0.00 0.05 0.03 27 961.1
20260904193712 86 114 9.0 0.0 0.00 0.05 0.03 28 961.1
20260904193213 86 180 8.0 0.0 0.00 0.05 0.03 29 961.1
20260904192713 85 135 9.0 0.0 0.00 0.05 0.03 30 961.1
20260904192212 84 132 12.0 0.0 0.00 0.05 0.03 31 961.4
20260904191713 86 175 13.0 0.0 0.00 0.05 0.03 32 961.4
20260904191212 83 142 13.0 0.0 0.00 0.05 0.03 34 961.4
20260904190822 84 172 9.0 0.0 0.00 0.05 0.03 32 961.4
20260904190238 82 88 10.0 0.0 0.00 0.05 0.03 34 961.4
20260904185742 84 123 8.0 0.0 0.00 0.05 0.03 32 961.7
20260904185213 83 115 12.0 0.0 0.00 0.05 0.03 32 961.7
20260904184715 82 186 10.0 0.0 0.00 0.05 0.03 33 961.7
20260904184214 83 135 9.0 0.0 0.00 0.05 0.03 32 961.7
20260904183710 82 133 9.0 0.0 0.00 0.05 0.03 33 961.7
20260904183215 82 127 10.0 0.0 0.00 0.05 0.03 33 961.7
20260904182737 81 140 10.0 0.0 0.00 0.05 0.03 34 961.7
20260904182212 81 79 9.0 0.0 0.00 0.05 0.03 34 961.7
20260904181741 81 140 9.0 0.0 0.00 0.05 0.03 35 961.7
20260904181211 81 185 9.0 0.0 0.00 0.05 0.03 35 961.7
20260904180715 80 103 8.0 0.0 0.00 0.05 0.03 36 961.7
20260904180212 81 269 7.0 0.0 0.00 0.05 0.03 36 962.1
20260904175714 79 128 9.0 0.0 0.00 0.05 0.03 39 962.1
20260904175213 78 158 8.0 0.0 0.00 0.05 0.03 42 962.1
20260904174711 78 147 7.0 0.0 0.00 0.05 0.03 42 962.1
20260904174212 78 165 6.0 0.0 0.00 0.05 0.03 43 962.1
20260904173711 76 355 6.0 0.0 0.00 0.05 0.03 46 962.1
20260904173211 77 159 6.0 0.0 0.00 0.05 0.03 48 962.1
20260904172712 74 356 5.0 0.0 0.00 0.05 0.03 54 962.1
20260904172222 74 105 6.0 0.0 0.00 0.05 0.03 55 962.1
20260904171719 74 121 5.0 0.0 0.00 0.05 0.03 54 962.1